Location: Follega
(52.8850°N, 5.7362°E)
Time: 00:36:17
(UTC+00:00)

Cosmos 2315 Rocket - Pass Details

Date: 01 June 2020
Orbit: 966 x 1002 km, 82.9° (Epoch: 15 July)

Event Time Altitude Azimuth Distance (km) Brightness Sun altitude
Rises 23:24:11 0° 347° (NNW) 3,672 8.8 -14.9°
Reaches altitude 10° 23:26:43 10° 344° (NNW) 2,720 7.6 -14.9°
Maximum altitude 23:32:50 62° 266° (W) 1,088 4.2 -14.9°
Enters shadow 23:37:02 21° 192° (SSW) 2,033 5.1 -14.9°
